Weather History for Montgomery, AL

Change the Weather History Date:

Wednesday, June 12, 2013

  Actual Average Record
Temperature  
Mean Temperature 85 °F 78 °F  
Max Temperature 95 °F 90 °F 101 °F (1977)
Min Temperature 74 °F 68 °F 52 °F (1913)
Cooling Degree Days 20 14  
Month to date cooling degree days 188 150  
Year to date cooling degree days 547 489  
Since 1 June cooling degree days 188 150  
Growing Degree Days 34 (Base 50)    
Moisture  
Dew Point 71 °F    
Average Humidity 65    
Maximum Humidity 88    
Minimum Humidity 41    
Precipitation  
Precipitation 0.00 in 0.12 in 2.16 in (1981)
Month to date precipitation 2.12 1.40  
Year to date precipitation 27.83 24.84  
Sea Level Pressure  
Sea Level Pressure 30.04 in    
Wind  
Wind Speed 5 mph (West)    
Max Wind Speed 13 mph    
Max Gust Speed 16 mph    
Visibility 10 miles    
Events      
T = Trace of Precipitation, MM = Missing Value Source: NWS Daily Summary

Daily Weather History Graph

Daily Weather History Graph

Search for Another Location

Airport:

Trip Planner

Search our weather history database for the weather conditions in past years. The results will help you decide how hot, cold, wet, or windy it might be!

Date:

Astronomy

Jun. 12, 2013 Rise Set
Actual Time 5:38 AM CDT 7:53 PM CDT
Civil Twilight 5:09 AM CDT 8:21 PM CDT
Nautical Twilight 4:35 AM CDT 8:56 PM CDT
Astronomical Twilight 3:57 AM CDT 9:33 PM CDT
Moon 9:07 AM CDT (6/12) 10:39 PM CDT (6/12)
Length of Visible Light 15h 11m
Length of Day
14h 14m
Waxing Crescent, 14% of the Moon is Illuminated
Jun 12
Waxing Crescent
Jun 16
First Quarter
Jun 23
Full
Jun 29
Last Quarter
Jul 8
New

Hourly Weather History & Observations

Time (CDT) Temp. Heat Index Dew Point Humidity Pressure Visibility Wind Dir Wind Speed Gust Speed Precip Events Conditions
12:53 AM 78.1 °F - 71.1 °F 79% 30.05 in 10.0 mi Calm Calm - N/A   Clear
1:53 AM 75.9 °F - 71.1 °F 85% 30.03 in 10.0 mi Calm Calm - N/A   Clear
2:53 AM 75.0 °F - 71.1 °F 87% 30.02 in 10.0 mi Calm Calm - N/A   Clear
3:53 AM 75.0 °F - 71.1 °F 87% 30.02 in 9.0 mi Calm Calm - N/A   Clear
4:53 AM 75.0 °F - 71.1 °F 87% 30.03 in 8.0 mi Calm Calm - N/A   Clear
5:53 AM 75.0 °F - 71.1 °F 87% 30.05 in 6.0 mi SW 4.6 mph - N/A   Clear
6:53 AM 75.9 °F - 72.0 °F 87% 30.06 in 6.0 mi WSW 3.5 mph - N/A   Clear
7:53 AM 80.1 °F 84.2 °F 73.0 °F 79% 30.08 in 10.0 mi WSW 4.6 mph - N/A   Clear
8:53 AM 84.9 °F 91.4 °F 73.0 °F 67% 30.08 in 10.0 mi NW 6.9 mph - N/A   Clear
9:53 AM 89.1 °F 97.0 °F 73.0 °F 59% 30.08 in 10.0 mi NW 8.1 mph - N/A   Clear
10:53 AM 90.0 °F 97.9 °F 73.0 °F 57% 30.08 in 10.0 mi WNW 5.8 mph - N/A   Clear
11:53 AM 91.9 °F 99.5 °F 72.0 °F 52% 30.08 in 10.0 mi West 9.2 mph - N/A   Partly Cloudy
12:53 PM 93.9 °F 100.3 °F 70.0 °F 46% 30.08 in 10.0 mi WSW 8.1 mph - N/A   Clear
1:53 PM 93.9 °F 99.1 °F 69.1 °F 44% 30.06 in 10.0 mi WNW 6.9 mph - N/A   Partly Cloudy
2:53 PM 95.0 °F 101.3 °F 70.0 °F 44% 30.04 in 10.0 mi NW 5.8 mph - N/A   Clear
3:53 PM 95.0 °F 99.5 °F 68.0 °F 41% 30.02 in 10.0 mi WNW 9.2 mph - N/A   Clear
4:53 PM 93.9 °F 98.6 °F 68.0 °F 43% 30.01 in 10.0 mi West 8.1 mph - N/A   Clear
5:53 PM 93.0 °F 96.4 °F 66.9 °F 42% 30.00 in 10.0 mi West 6.9 mph - N/A   Clear
6:53 PM 91.0 °F 95.6 °F 69.1 °F 48% 29.99 in 10.0 mi West 4.6 mph - N/A   Clear
7:53 PM 84.9 °F 90.7 °F 72.0 °F 65% 29.99 in 10.0 mi WSW 3.5 mph - N/A   Clear
8:53 PM 82.0 °F 86.7 °F 72.0 °F 71% 29.99 in 10.0 mi SW 4.6 mph - N/A   Clear
9:53 PM 79.0 °F - 72.0 °F 79% 30.00 in 10.0 mi Calm Calm - N/A   Clear
10:53 PM 77.0 °F - 73.0 °F 88% 30.00 in 10.0 mi Calm Calm - N/A   Clear
11:53 PM 78.1 °F - 73.0 °F 84% 29.99 in 10.0 mi SSW 4.6 mph - N/A   Clear